Location: Aalen
(48.8330°N, 10.1000°E)
Time: 23:42:32
(UTC+02:00)

Transit 4A - Pass Details

Date: 07 August 2021
Orbit: 870 x 974 km, 66.8° (Epoch: 26 September)

Event Time Altitude Azimuth Distance (km) Brightness Sun altitude
Rises 08:38:25 0° 323° (NW) 3,478 10.5 24.2°
Reaches altitude 10° 08:40:53 10° 321° (NW) 2,543 9.9 24.6°
Maximum altitude 08:46:43 67° 239° (WSW) 962 8.2 25.5°
Drops below altitude 10° 08:52:38 10° 159° (SSE) 2,585 10.7 26.5°
Sets 08:55:11 0° 156° (SSE) 3,539 11.3 26.9°
